[[{"header":{"parameterUnit":"m.s-1","parameterCategory":1,"la1":30.2991,"la2":30.254,"lo1":-89.0895,"lo2":-89.0444,"dy":0.0017,"dx":0.0017,"nx":28,"ny":28,"refTime":"2024-04-25T09:00:00:Z","depth":0,"parameterNumber":2,"parameterNumberName":"U-component_of_WINDS"},"data":[0,0,0,0,0,0,0,0,0,0,0,0,0,0,0,0,0,0,0,0,0,0,0,0,0,0,0,0,0,0,0,0,0,0,0,0,0,0,0,0,0,0,0,0,0,0,0,0,0,0,0,0,0,0,0,0,0,0,-3.4277,-3.4277,0,-3.4306,-3.4306,-3.4306,-3.4303,-3.4302,-3.4302,-3.4301,-3.4329,-3.433,-3.4331,0,0,0,0,0,0,0,0,0,0,0,0,0,-3.422,-3.4221,-3.4277,-3.4277,-3.4278,-3.4305,-3.4306,-3.4306,-3.4303,-3.4302,-3.4302,-3.4301,-3.4329,-3.433,-3.4331,0,0,0,0,0,0,0,0,0,0,0,0,0,-3.4246,-3.4221,-3.4277,-3.4279,-3.428,-3.4305,-3.4306,-3.4306,-3.4303,-3.4302,-3.4302,-3.4301,-3.4328,-3.433,-3.4332,-3.4356,0,0,-3.4337,-3.4338,0,0,0,0,0,0,0,0,-3.4245,-3.4248,-3.4279,-3.4279,-3.428,-3.43,-3.4296,-3.4323,-3.4303,-3.4294,-3.4301,-3.4301,-3.432,-3.4322,-3.4329,-3.4357,-3.4358,-3.4337,-3.4338,-3.4339,-3.4339,0,0,0,0,0,0,0,-3.4243,-3.4247,-3.4288,-3.4279,-3.428,-3.4279,-3.4282,-3.4301,-3.431,-3.4295,-3.4295,-3.4298,-3.432,-3.4327,-3.433,-3.4359,-3.4337,-3.4339,-3.434,-3.434,-3.441,-3.4411,0,0,0,0,0,0,-3.424,-3.4245,-3.4287,-3.4289,-3.426,-3.4281,-3.4284,-3.4294,-3.431,-3.4312,-3.4299,-3.4298,-3.4325,-3.4328,-3.4331,-3.4361,-3.4339,-3.4341,-3.4342,-3.4409,-3.441,-3.4411,0,0,0,0,0,0,-3.4239,-3.4244,-3.4286,-3.4267,-3.4273,-3.4283,-3.4294,-3.4295,-3.4302,-3.4313,-3.4315,-3.4304,-3.4324,-3.4328,-3.435,-3.4362,-3.4341,-3.4343,-3.4409,-3.441,-3.4411,-3.4421,0,0,0,0,0,0,-3.4238,-3.4244,-3.4253,-3.4268,-3.4274,-3.4305,-3.4295,-3.4296,-3.4306,-3.4305,-3.4319,-3.4321,-3.4324,-3.4348,-3.4352,-3.4364,-3.4344,-3.4407,-3.4409,-3.4411,-3.4419,-3.4422,-3.4424,0,0,0,0,0,-3.4236,-3.4254,-3.4253,-3.4258,-3.4285,-3.4306,-3.4309,-3.4313,-3.4306,-3.4316,-3.4323,-3.432,-3.436,-3.435,-3.4355,-3.4367,-3.4407,-3.4409,-3.441,-3.4418,-3.4422,-3.4424,0,0,0,0,0,0,-3.4238,-3.4255,-3.4255,-3.4279,-3.4291,-3.4305,-3.4317,-3.4316,-3.433,-3.4329,-3.4333,-3.4336,-3.4359,-3.4365,-3.4354,-3.4392,-3.4383,-3.4385,-3.4387,-3.439,-3.4393,-3.439,-3.4346,0,0,0,0,0,-3.4242,-3.4258,-3.4272,-3.4291,-3.4297,-3.4306,-3.4315,-3.4318,-3.433,-3.4335,-3.4344,-3.4356,-3.4372,-3.4381,-3.4396,-3.4421,-3.4424,-3.4432,-3.4435,-3.4437,-3.4439,-3.4453,-3.4457,-3.4417,-3.4417,-3.4417,0,0,-3.4249,-3.426,-3.427,-3.4292,-3.4302,-3.4318,-3.431,-3.4327,-3.4339,-3.4338,-3.4359,-3.4366,-3.438,-3.4404,-3.4415,-3.441,-3.4451,-3.4439,-3.4441,-3.4442,-3.4456,-3.446,-3.4463,-3.4419,-3.4418,-3.4418,0,0,-3.427,-3.428,-3.4298,-3.4309,-3.4324,-3.4331,-3.4335,-3.435,-3.4355,-3.4377,-3.4377,-3.4392,-3.4418,-3.4428,-3.4437,-3.4465,-3.4463,-3.447,-3.4483,-3.4497,-3.45,-3.4503,-3.4513,-3.4516,-3.4472,-3.4472,-3.4472,0,-3.4276,-3.4301,-3.4307,-3.4325,-3.4335,-3.4336,-3.4354,-3.4364,-3.4384,-3.4391,-3.4386,-3.442,-3.4429,-3.4456,-3.4463,-3.4471,-3.4476,-3.4467,-3.4499,-3.4502,-3.4505,-3.4514,-3.4518,-3.4473,-3.4473,-3.4473,-3.4473,0,-3.4308,-3.4326,-3.4338,-3.4358,-3.437,-3.4388,-3.4397,-3.4408,-3.4411,-3.4418,-3.4441,-3.4453,-3.4471,-3.4478,-3.448,-3.4506,-3.4502,-3.4498,-3.4488,-3.4509,-3.4518,-3.4522,-3.4474,-3.4474,-3.4474,-3.4473,0,0,-3.4329,-3.4355,-3.4359,-3.4369,-3.4388,-3.4401,-3.442,-3.4438,-3.4448,-3.4462,-3.4478,-3.4502,-3.4499,-3.4509,-3.4513,-3.4525,-3.4548,-3.452,-3.452,-3.4524,-3.4577,-3.4579,-3.4584,-3.4547,-3.4548,-3.4549,-3.4576,0,-3.4351,-3.4385,-3.4392,-3.4421,-3.4438,-3.4441,-3.4457,-3.4471,-3.4479,-3.4494,-3.4502,-3.4519,-3.4514,-3.452,-3.4533,-3.4542,-3.4558,-3.4541,-3.4562,-3.4562,-3.4557,-3.4588,-3.459,-3.4615,-3.458,-3.458,-3.4581,0,-3.4381,-3.4398,-3.4429,-3.4447,-3.4454,-3.4469,-3.4488,-3.4502,-3.4518,-3.4523,-3.4536,-3.4539,-3.4559,-3.455,-3.4578,-3.4565,-3.4575,-3.4581,-3.4582,-3.4583,-3.4572,-3.4589,-3.4623,-3.4627,-3.4587,-3.4586,-3.4586,0,-3.4393,-3.4423,-3.4446,-3.4454,-3.4476,-3.4487,-3.4497,-3.4512,-3.4523,-3.454,-3.4547,-3.4566,-3.4575,-3.459,-3.4598,-3.459,-3.4625,-3.4616,-3.463,-3.4629,-3.4635,-3.4634,-3.467,-3.4643,-3.4643,-3.4643,-3.4643,0,-3.4417,-3.4436,-3.4452,-3.4465,-3.4487,-3.4496,-3.4517,-3.4527,-3.4541,-3.4557,-3.4561,-3.4576,-3.4586,-3.4602,-3.4609,-3.4631,-3.4636,-3.464,-3.4641,-3.4639,-3.4638,-3.4644,-3.4642,-3.4644,-3.4644,-3.4644,-3.4644,0,-3.4433,-3.4445,-3.4469,-3.449,-3.4495,-3.451,-3.4527,-3.4541,-3.455,-3.457,-3.4576,-3.459,-3.4609,-3.4619,-3.4643,-3.4648,-3.4673,-3.4674,-3.4668,-3.4668,-3.4681,-3.4679,-3.472,-3.4726,-3.4696,-3.4696,-3.4697,0,-3.4447,-3.4461,-3.4484,-3.4495,-3.4506,-3.4524,-3.4536,-3.4546,-3.4559,-3.458,-3.4591,-3.4611,-3.4628,-3.466,-3.4672,-3.4691,-3.4691,-3.4705,-3.4694,-3.4692,-3.4691,-3.4689,-3.4691,-3.4706,-3.4706,-3.4706,-3.4706,0,-3.447,-3.4476,-3.4493,-3.4514,-3.4529,-3.4545,-3.4561,-3.457,-3.4583,-3.4597,-3.4618,-3.4631,-3.4657,-3.4677,-3.4698,-3.4707,-3.4709,-3.471,-3.4714,-3.4711,-3.4707,-3.4709,-3.4672,-3.4709,-3.4708,-3.4708,-3.4708,-3.4708,-3.4485,-3.4499,-3.4517,-3.4537,-3.4551,-3.4566,-3.4581,-3.4593,-3.4611,-3.4633,-3.4638,-3.466,-3.4678,-3.4706,-3.4716,-3.4734,-3.4731,-3.4737,-3.4738,-3.4739,-3.4739,-3.4706,-3.4738,-3.4738,-3.4738,-3.4738,-3.4738,0,-3.4508,-3.4521,-3.4539,-3.4563,-3.4579,-3.4581,-3.4599,-3.4613,-3.4632,-3.4649,-3.4666,-3.4691,-3.4711,-3.4726,-3.4746,-3.4757,-3.4759,-3.4762,-3.4761,-3.4763,-3.4741,-3.4735,-3.4761,-3.4761,-3.4761,-3.4761,-3.4761,-3.4761,-3.4522,-3.4546,-3.4554,-3.4585,-3.4598,-3.462,-3.463,-3.4645,-3.4658,-3.4686,-3.4703,-3.4714,-3.473,-3.4752,-3.4771,-3.4775,-3.4782,-3.4785,-3.4789,-3.4767,-3.4765,-3.4762,-3.4757,-3.4787,-3.4787,-3.481,-3.481,-3.481]},{"header":{"parameterUnit":"m.s-1","parameterCategory":1,"la1":30.2991,"la2":30.254,"lo1":-89.0895,"lo2":-89.0444,"dy":0.0017,"dx":0.0017,"nx":28,"ny":28,"refTime":"2024-04-25T09:00:00:Z","depth":0,"parameterNumber":3,"parameterNumberName":"V-component_of_WINDS"},"data":[0,0,0,0,0,0,0,0,0,0,0,0,0,0,0,0,0,0,0,0,0,0,0,0,0,0,0,0,0,0,0,0,0,0,0,0,0,0,0,0,0,0,0,0,0,0,0,0,0,0,0,0,0,0,0,0,0,0,4.475,4.4751,0,4.482,4.4821,4.4822,4.4843,4.4843,4.4843,4.4842,4.491,4.4912,4.4914,0,0,0,0,0,0,0,0,0,0,0,0,0,4.4631,4.4633,4.475,4.4751,4.4752,4.482,4.4821,4.4822,4.4844,4.4843,4.4843,4.4842,4.4909,4.4911,4.4914,0,0,0,0,0,0,0,0,0,0,0,0,0,4.469,4.4634,4.475,4.4771,4.4773,4.482,4.4821,4.4822,4.4844,4.4843,4.4843,4.4842,4.4908,4.4911,4.4914,4.4944,0,0,4.4924,4.4925,0,0,0,0,0,0,0,0,4.4686,4.4694,4.4767,4.4769,4.4772,4.4823,4.4804,4.4863,4.4844,4.4817,4.4842,4.4842,4.4881,4.4886,4.49,4.4947,4.495,4.4924,4.4926,4.4927,4.4928,0,0,0,0,0,0,0,4.4682,4.4691,4.4778,4.4768,4.4771,4.4776,4.4783,4.4815,4.485,4.4819,4.4821,4.4829,4.4882,4.4897,4.4902,4.4951,4.4924,4.4927,4.4929,4.493,4.5027,4.5028,0,0,0,0,0,0,4.4675,4.4688,4.4775,4.478,4.4727,4.4778,4.4787,4.4807,4.485,4.4856,4.4829,4.483,4.4892,4.4898,4.4904,4.4943,4.4927,4.493,4.4932,4.5026,4.5027,4.5028,0,0,0,0,0,0,4.4673,4.4683,4.4772,4.4734,4.4746,4.4781,4.4803,4.4809,4.4824,4.4858,4.4864,4.4839,4.4892,4.49,4.4935,4.4946,4.4932,4.4935,4.5026,4.5027,4.5028,4.502,0,0,0,0,0,0,4.4669,4.4682,4.4694,4.4734,4.4748,4.4802,4.4804,4.481,4.483,4.4831,4.4868,4.4874,4.4892,4.493,4.4938,4.495,4.4937,4.5025,4.5026,4.5027,4.5019,4.5021,4.5022,0,0,0,0,0,4.4665,4.4687,4.4694,4.4705,4.4764,4.4803,4.481,4.4832,4.483,4.4843,4.4865,4.4873,4.4944,4.4933,4.4942,4.4955,4.5024,4.5026,4.5027,4.5019,4.502,4.5022,0,0,0,0,0,0,4.4644,4.4693,4.4701,4.4738,4.4766,4.4806,4.4822,4.4833,4.4861,4.4861,4.4885,4.4894,4.4927,4.4945,4.4932,4.4987,4.4984,4.4988,4.4975,4.4976,4.4978,4.4972,4.494,0,0,0,0,0,4.4645,4.4673,4.4714,4.4742,4.4756,4.4787,4.4804,4.4819,4.4849,4.4861,4.4886,4.4913,4.4942,4.496,4.4988,4.5022,4.5031,4.5036,4.5037,4.5038,4.5041,4.5062,4.5065,4.5033,4.5033,4.5033,0,0,4.4644,4.4674,4.469,4.4739,4.4762,4.4791,4.4797,4.4826,4.4847,4.4865,4.49,4.4919,4.4952,4.4987,4.5004,4.5003,4.5052,4.504,4.5041,4.5043,4.5064,4.5067,4.5069,4.5034,4.5034,4.5034,0,0,4.4658,4.4684,4.4711,4.4736,4.4774,4.4794,4.4801,4.4841,4.4855,4.4891,4.4905,4.4931,4.4979,4.5002,4.502,4.5047,4.5055,4.5055,4.5061,4.5082,4.5084,4.5086,4.5097,4.51,4.5058,4.5058,4.5058,0,4.4653,4.4698,4.4723,4.4754,4.4775,4.4795,4.4822,4.4845,4.4888,4.4902,4.4901,4.4964,4.4987,4.5029,4.5036,4.505,4.5058,4.5051,4.5082,4.5085,4.5087,4.5097,4.5101,4.5058,4.5058,4.5058,4.5058,0,4.469,4.4721,4.4739,4.4784,4.4807,4.4835,4.4865,4.4885,4.4898,4.4919,4.4956,4.4985,4.5021,4.5032,4.5044,4.5076,4.5074,4.5077,4.5074,4.5089,4.51,4.5104,4.5057,4.5057,4.5058,4.5058,0,0,4.4691,4.4753,4.4758,4.478,4.4824,4.4848,4.4878,4.4915,4.4932,4.4962,4.4988,4.503,4.5034,4.5055,4.507,4.5088,4.5109,4.5089,4.509,4.5092,4.5147,4.5145,4.5149,4.5115,4.5116,4.5117,4.5145,0,4.4712,4.4768,4.4793,4.4838,4.4867,4.4888,4.4914,4.4944,4.4964,4.4992,4.5014,4.5045,4.5047,4.506,4.5079,4.5102,4.512,4.5101,4.5139,4.514,4.513,4.5154,4.5151,4.5176,4.5149,4.5149,4.515,0,4.4743,4.4776,4.4824,4.4867,4.488,4.4904,4.4941,4.4967,4.5001,4.5015,4.504,4.5055,4.5087,4.5083,4.5128,4.5114,4.5131,4.5146,4.5147,4.5151,4.5146,4.5159,4.5185,4.5189,4.5156,4.5156,4.5155,0,4.474,4.4797,4.4834,4.4851,4.4902,4.4918,4.4939,4.4974,4.4995,4.5027,4.5041,4.5076,4.5094,4.5121,4.5145,4.5139,4.5188,4.5185,4.52,4.5199,4.5209,4.5208,4.5238,4.5219,4.5219,4.5219,4.5219,0,4.476,4.4789,4.4834,4.4856,4.4889,4.4918,4.495,4.4972,4.5003,4.503,4.5049,4.5074,4.5105,4.5133,4.5152,4.5187,4.5195,4.5207,4.5212,4.5206,4.5204,4.5217,4.5216,4.522,4.522,4.522,4.522,0,4.4763,4.4793,4.4835,4.4881,4.4893,4.4916,4.4955,4.4977,4.5,4.5034,4.5044,4.5079,4.5114,4.5141,4.5186,4.5199,4.5236,4.5241,4.5225,4.5227,4.5241,4.524,4.528,4.5288,4.5264,4.5264,4.5265,0,4.4773,4.4797,4.4846,4.4867,4.4889,4.4922,4.4945,4.4974,4.4997,4.504,4.5057,4.5094,4.5125,4.518,4.5209,4.5243,4.525,4.5262,4.5255,4.5248,4.5251,4.5249,4.5252,4.5262,4.5262,4.5262,4.5262,0,4.479,4.4805,4.4838,4.4878,4.4905,4.4937,4.4969,4.4984,4.502,4.5044,4.5082,4.5106,4.5154,4.519,4.5229,4.525,4.5262,4.5265,4.527,4.5264,4.5254,4.5261,4.5228,4.5263,4.5263,4.5263,4.5263,4.5263,4.4797,4.482,4.4859,4.4896,4.4924,4.4954,4.4979,4.5006,4.5038,4.5081,4.5096,4.5135,4.517,4.5223,4.5245,4.5275,4.5276,4.5283,4.5285,4.5287,4.5287,4.525,4.5282,4.5282,4.5282,4.5282,4.5282,0,4.4816,4.4843,4.4877,4.4923,4.4952,4.4964,4.5,4.5024,4.5058,4.5091,4.5123,4.5166,4.5202,4.5235,4.5273,4.5291,4.5298,4.53,4.5299,4.5304,4.5284,4.5276,4.5294,4.5294,4.5294,4.5294,4.5294,4.5294,4.4829,4.4868,4.4888,4.4942,4.4968,4.5008,4.5028,4.5056,4.5083,4.5132,4.5163,4.5185,4.5219,4.5259,4.5293,4.5302,4.5315,4.5316,4.5326,4.5306,4.5305,4.5303,4.5296,4.5318,4.5318,4.5344,4.5344,4.5344]}]]